EN

Hourly Weather Heredia

Today, 18 September, Saturday

Time Temperature Precipitation Wind Pressure Humidity
00:00 +20°C° 0 mm 1 mps 663 mmHg 95%
01:00 +20°C° 0 mm 1 mps 662 mmHg 95%
02:00 +20°C° 0 mm 1 mps 662 mmHg 95%
03:00 +19°C° 0 mm 1 mps 662 mmHg 94%
04:00 +19°C° 0 mm 1 mps 662 mmHg 94%
05:00 +19°C° 0 mm 1 mps 663 mmHg 94%
06:00 +19°C° 0 mm 1 mps 663 mmHg 94%
07:00 +21°C° 0.1 mm 1 mps 664 mmHg 88%
08:00 +23°C° 0.1 mm 1 mps 665 mmHg 81%
09:00 +25°C° 0.1 mm 1 mps 665 mmHg 74%
10:00 +25°C° 1.5 mm 1 mps 665 mmHg 76%
11:00 +25°C° 1.5 mm 1 mps 664 mmHg 79%
12:00 +25°C° 1.5 mm 1 mps 664 mmHg 81%
13:00 +25°C° 1.8 mm 1 mps 664 mmHg 84%
14:00 +24°C° 1.8 mm 1 mps 663 mmHg 88%
15:00 +23°C° 1.8 mm 1 mps 662 mmHg 92%
16:00 +22°C° 0.7 mm 1 mps 663 mmHg 93%
17:00 +22°C° 0.7 mm 1 mps 663 mmHg 94%
18:00 +21°C° 0.7 mm 1 mps 663 mmHg 96%
19:00 +21°C° 0 mm 1 mps 664 mmHg 96%
20:00 +20°C° 0 mm 1 mps 664 mmHg 96%
21:00 +20°C° 0 mm 1 mps 664 mmHg 96%
22:00 +20°C° 0 mm 1 mps 664 mmHg 95%
23:00 +20°C° 0 mm 1 mps 663 mmHg 95%

Tomorrow, 19 September, Sunday

Time Temperature Precipitation Wind Pressure Humidity
00:00 +20°C° 0 mm 1 mps 663 mmHg 94%
01:00 +20°C° 0 mm 1 mps 663 mmHg 94%
02:00 +19°C° 0 mm 1 mps 662 mmHg 95%
03:00 +19°C° 0 mm 1 mps 662 mmHg 95%
04:00 +19°C° 0 mm 1 mps 662 mmHg 95%
05:00 +19°C° 0 mm 1 mps 663 mmHg 95%
06:00 +19°C° 0 mm 1 mps 663 mmHg 94%
07:00 +21°C° 0 mm 1 mps 664 mmHg 87%
08:00 +23°C° 0 mm 1 mps 664 mmHg 80%
09:00 +25°C° 0 mm 1 mps 665 mmHg 72%
10:00 +25°C° 0.7 mm 1 mps 665 mmHg 72%
11:00 +25°C° 0.7 mm 2 mps 664 mmHg 72%
12:00 +26°C° 0.7 mm 2 mps 664 mmHg 71%
13:00 +25°C° 0.9 mm 2 mps 663 mmHg 74%
14:00 +25°C° 0.9 mm 1 mps 663 mmHg 76%
15:00 +24°C° 0.9 mm 1 mps 662 mmHg 79%
16:00 +23°C° 0.4 mm 1 mps 663 mmHg 84%
17:00 +22°C° 0.4 mm 1 mps 663 mmHg 89%
18:00 +19°C° 0.4 mm 0 mps 663 mmHg 95%
19:00 +21°C° 0.1 mm 1 mps 663 mmHg 94%
20:00 +20°C° 0.1 mm 1 mps 664 mmHg 93%
21:00 +20°C° 0.1 mm 1 mps 664 mmHg 93%
22:00 +20°C° 0 mm 1 mps 664 mmHg 92%
23:00 +20°C° 0 mm 1 mps 663 mmHg 91%

Day after tomorrow, 20 September, Monday

Time Temperature Precipitation Wind Pressure Humidity
00:00 +19°C° 0 mm 1 mps 663 mmHg 90%
01:00 +19°C° 0 mm 1 mps 663 mmHg 90%
02:00 +19°C° 0 mm 1 mps 662 mmHg 89%
03:00 +19°C° 0 mm 1 mps 662 mmHg 89%
04:00 +19°C° 0 mm 1 mps 662 mmHg 88%
05:00 +19°C° 0 mm 1 mps 662 mmHg 87%
06:00 +19°C° 0 mm 1 mps 663 mmHg 86%
07:00 +20°C° 0 mm 1 mps 663 mmHg 83%
08:00 +21°C° 0 mm 1 mps 664 mmHg 81%
09:00 +22°C° 0 mm 1 mps 664 mmHg 78%
10:00 +24°C° 0.1 mm 1 mps 664 mmHg 72%
11:00 +25°C° 0.1 mm 2 mps 664 mmHg 65%
12:00 +27°C° 0.1 mm 2 mps 664 mmHg 59%
13:00 +26°C° 0.8 mm 2 mps 663 mmHg 67%
14:00 +25°C° 0.8 mm 1 mps 663 mmHg 76%
15:00 +24°C° 0.8 mm 1 mps 662 mmHg 84%
16:00 +22°C° 0.5 mm 1 mps 662 mmHg 88%
17:00 +21°C° 0.5 mm 1 mps 663 mmHg 93%
18:00 +18°C° 0.5 mm 0 mps 663 mmHg 97%
19:00 +20°C° 0.1 mm 1 mps 663 mmHg 96%
20:00 +20°C° 0.1 mm 1 mps 663 mmHg 96%
21:00 +19°C° 0.1 mm 1 mps 664 mmHg 95%
22:00 +19°C° 0 mm 1 mps 663 mmHg 95%
23:00 +19°C° 0 mm 1 mps 663 mmHg 94%

21 September, Tuesday

Time Temperature Precipitation Wind Pressure Humidity
00:00 +19°C° 0 mm 1 mps 663 mmHg 94%
01:00 +19°C° 0 mm 1 mps 663 mmHg 93%
02:00 +19°C° 0 mm 1 mps 662 mmHg 92%
03:00 +18°C° 0 mm 1 mps 662 mmHg 91%
04:00 +18°C° 0 mm 1 mps 663 mmHg 91%
05:00 +19°C° 0 mm 1 mps 663 mmHg 92%
06:00 +19°C° 0 mm 1 mps 663 mmHg 92%
07:00 +21°C° 0 mm 1 mps 664 mmHg 82%
08:00 +23°C° 0 mm 1 mps 665 mmHg 71%
09:00 +25°C° 0 mm 1 mps 665 mmHg 61%
10:00 +26°C° 0 mm 1 mps 665 mmHg 62%
11:00 +26°C° 0 mm 1 mps 665 mmHg 62%
12:00 +26°C° 0 mm 1 mps 664 mmHg 63%
13:00 +25°C° 0.8 mm 1 mps 664 mmHg 71%
14:00 +24°C° 0.8 mm 1 mps 663 mmHg 79%
15:00 +23°C° 0.8 mm 1 mps 663 mmHg 87%
16:00 +22°C° 1.1 mm 1 mps 663 mmHg 90%
17:00 +21°C° 1.1 mm 1 mps 663 mmHg 93%
18:00 +19°C° 1.1 mm 0 mps 663 mmHg 96%
19:00 +18°C° 0.3 mm 0 mps 663 mmHg 96%
20:00 +18°C° 0.3 mm 0 mps 664 mmHg 96%
21:00 +18°C° 0.3 mm 0 mps 664 mmHg 96%
22:00 +18°C° 0 mm 0 mps 664 mmHg 96%
23:00 +18°C° 0 mm 0 mps 663 mmHg 96%

22 September, Wednesday

Time Temperature Precipitation Wind Pressure Humidity
00:00 +17°C° 0 mm 0 mps 663 mmHg 96%
01:00 +17°C° 0 mm 0 mps 663 mmHg 96%
02:00 +17°C° 0 mm 0 mps 663 mmHg 96%
03:00 +19°C° 0 mm 1 mps 662 mmHg 95%
04:00 +19°C° 0 mm 1 mps 663 mmHg 95%
05:00 +19°C° 0 mm 1 mps 663 mmHg 95%
06:00 +19°C° 0 mm 1 mps 663 mmHg 95%
07:00 +21°C° 0 mm 1 mps 664 mmHg 86%
08:00 +23°C° 0 mm 1 mps 665 mmHg 78%
09:00 +25°C° 0 mm 1 mps 665 mmHg 69%
10:00 +25°C° 0.3 mm 1 mps 665 mmHg 68%
11:00 +26°C° 0.3 mm 1 mps 665 mmHg 67%
12:00 +26°C° 0.3 mm 2 mps 664 mmHg 66%
13:00 +25°C° 1.1 mm 1 mps 664 mmHg 73%
14:00 +24°C° 1.1 mm 1 mps 663 mmHg 80%
15:00 +23°C° 1.1 mm 1 mps 662 mmHg 87%
16:00 +22°C° 0.8 mm 1 mps 663 mmHg 90%
17:00 +21°C° 0.8 mm 1 mps 663 mmHg 94%
18:00 +21°C° 0.8 mm 1 mps 663 mmHg 97%
19:00 +18°C° 0.5 mm 0 mps 663 mmHg 96%
20:00 +18°C° 0.5 mm 0 mps 664 mmHg 96%
21:00 +18°C° 0.5 mm 0 mps 664 mmHg 95%
22:00 +18°C° 1 mm 0 mps 664 mmHg 96%
23:00 +18°C° 1 mm 0 mps 663 mmHg 96%

23 September, Thursday

Time Temperature Precipitation Wind Pressure Humidity
00:00 +18°C° 1 mm 0 mps 663 mmHg 96%
01:00 +18°C° 0.3 mm 0 mps 663 mmHg 96%
02:00 +18°C° 0.3 mm 0 mps 662 mmHg 95%
03:00 +18°C° 0.3 mm 0 mps 662 mmHg 95%
04:00 +18°C° 0 mm 0 mps 662 mmHg 94%
05:00 +18°C° 0 mm 0 mps 663 mmHg 94%
06:00 +18°C° 0 mm 0 mps 663 mmHg 94%
07:00 +19°C° 0 mm 0 mps 663 mmHg 86%
08:00 +23°C° 0 mm 1 mps 664 mmHg 78%
09:00 +25°C° 0 mm 1 mps 665 mmHg 70%
10:00 +25°C° 0.4 mm 1 mps 664 mmHg 72%
11:00 +25°C° 0.4 mm 1 mps 664 mmHg 74%
12:00 +25°C° 0.4 mm 1 mps 663 mmHg 76%
13:00 +24°C° 1.3 mm 1 mps 663 mmHg 82%
14:00 +23°C° 1.3 mm 1 mps 662 mmHg 87%
15:00 +22°C° 1.3 mm 1 mps 662 mmHg 93%
16:00 +21°C° 2.2 mm 1 mps 662 mmHg 94%
17:00 +19°C° 2.2 mm 0 mps 662 mmHg 96%
18:00 +19°C° 2.2 mm 0 mps 662 mmHg 97%
19:00 +18°C° 1.1 mm 0 mps 663 mmHg 97%
20:00 +18°C° 1.1 mm 0 mps 663 mmHg 96%
21:00 +18°C° 1.1 mm 0 mps 664 mmHg 96%
22:00 +18°C° 0.1 mm 0 mps 663 mmHg 96%
23:00 +18°C° 0.1 mm 0 mps 663 mmHg 96%
Show more

We Need Your Consent

Meteoprog and our Service Providers may store and access personal data such as cookies, device identifiers or other similar technologies on your device and process such data to personalise content and ads, as well as provide social media features and to analyse the traffic.

  • Store and/or access information on your device

    Cookies, device identifiers or other information can be stored or accessed on your device for the purposes indicated above.

  • Personalised ads and content, ad and content measurement, audience insights, and products development

    Ads and content can be personalised based on a profile. More data can be added to better personalise ads and content. Ad and content performance can be measured. Insights about the audience who saw the ads and content can be derived. Such data can be used to develop or improve user’s experience, systems and software.

By clicking ‘I Agree’ you will allow the use of indicated cookies, device identifiers, web beacons or other similar technologies. Your settings can be changed in the browser on your device.

For certain purposes, legitimate interests may be relied on, rather than consent. You can read more about this in our Privacy and Cookie Policy.